Location: Pl�tzky
(52.0521°N, 11.8020°E)
Time: 20:21:02
(UTC+00:00)

ASTEX 1 - Pass Details

Date: 22 November 2019
Orbit: 721 x 742 km, 92.7° (Epoch: 06 December)

Event Time Altitude Azimuth Distance (km) Brightness Sun altitude
Rises 16:14:39 0° 3° (N) 3,196 6.5 -9.3°
Reaches altitude 10° 16:16:59 10° 0° (N) 2,267 5.7 -9.6°
Maximum altitude 16:21:55 62° 281° (W) 836 4.0 -10.3°
Drops below altitude 10° 16:26:49 10° 202° (SSW) 2,240 6.5 -11.0°
Sets 16:29:06 0° 199° (SSW) 3,155 7.3 -11.4°
